SPPAC EPLU-EPLS

Flight info

Callsign SPPAC
Flight time 0h 17m
Altitude 3000
Route EPLSS
Aircraft P750/L-SDGRY/S

Departure

Time 2026-04-20 20:52
Airport Lubin Airfield (EPLU)

Arrival

Time 2026-04-20 21:10
Airport Leszno-Strzyzewice Airfield (EPLS)
Time Latitude Longitude Altitude Speed Heading
2026-04-20 20:46 51.42627 16.19412 516 ft 0 kts 179°
2026-04-20 20:48 51.42617 16.19412 516 ft 8 kts 181°
2026-04-20 20:48 51.42601 16.19412 516 ft 0 kts 180°
2026-04-20 20:50 51.42596 16.19412 516 ft 5 kts 181°
2026-04-20 20:50 51.42516 16.19388 516 ft 12 kts 221°
2026-04-20 20:50 51.42434 16.19338 516 ft 14 kts 142°
2026-04-20 20:50 51.42354 16.19511 517 ft 22 kts 129°
2026-04-20 20:51 51.42251 16.19705 517 ft 23 kts 130°
2026-04-20 20:51 51.42146 16.19904 518 ft 24 kts 130°
2026-04-20 20:51 51.42052 16.20108 516 ft 13 kts 109°
2026-04-20 20:51 51.42053 16.20078 516 ft 11 kts 316°
2026-04-20 20:52 51.42073 16.20039 516 ft 14 kts 309°
2026-04-20 20:52 51.42379 16.19459 541 ft 106 kts 310°
2026-04-20 20:52 51.42869 16.18530 957 ft 109 kts 310°
2026-04-20 20:52 51.43538 16.17921 1373 ft 116 kts
2026-04-20 20:53 51.44170 16.18611 1685 ft 121 kts 65°
2026-04-20 20:53 51.44599 16.19895 1741 ft 134 kts 53°
2026-04-20 20:53 51.45236 16.20958 1987 ft 131 kts 39°
2026-04-20 20:53 51.45952 16.21862 2203 ft 131 kts 37°
2026-04-20 20:54 51.46654 16.22723 2510 ft 126 kts 35°
2026-04-20 20:54 51.47377 16.23451 2753 ft 127 kts 24°
2026-04-20 20:54 51.48131 16.24120 3008 ft 128 kts 41°
2026-04-20 20:54 51.48705 16.25325 3019 ft 143 kts 60°
2026-04-20 20:55 51.49305 16.26636 3011 ft 149 kts 39°
2026-04-20 20:55 51.50167 16.27568 3009 ft 151 kts 31°
2026-04-20 20:55 51.51060 16.28462 3008 ft 152 kts 31°
2026-04-20 20:55 51.51956 16.29360 3009 ft 152 kts 31°
2026-04-20 20:56 51.52854 16.30262 3010 ft 152 kts 31°
2026-04-20 20:56 51.53751 16.31169 3010 ft 152 kts 31°
2026-04-20 20:56 51.54649 16.32076 3009 ft 152 kts 31°
2026-04-20 20:56 51.55546 16.32985 3009 ft 152 kts 31°
2026-04-20 20:57 51.56444 16.33895 3009 ft 152 kts 31°
2026-04-20 20:57 51.57341 16.34803 3008 ft 152 kts 31°
2026-04-20 20:57 51.58239 16.35712 3009 ft 152 kts 31°
2026-04-20 20:57 51.59133 16.36622 3008 ft 152 kts 31°
2026-04-20 20:58 51.60018 16.37518 3008 ft 152 kts 31°
2026-04-20 20:58 51.60914 16.38427 3008 ft 152 kts 31°
2026-04-20 20:58 51.61810 16.39338 3008 ft 152 kts 31°
2026-04-20 20:58 51.62705 16.40247 3008 ft 152 kts 31°
2026-04-20 20:59 51.63602 16.41158 3008 ft 152 kts 31°
2026-04-20 20:59 51.64498 16.42071 3009 ft 152 kts 31°
2026-04-20 20:59 51.64993 16.42573 3008 ft 152 kts 31°
2026-04-20 20:59 51.65891 16.43488 3008 ft 152 kts 31°
2026-04-20 21:00 51.66787 16.44400 3009 ft 152 kts 31°
2026-04-20 21:00 51.67682 16.45312 3009 ft 152 kts 31°
2026-04-20 21:00 51.68577 16.46225 3008 ft 152 kts 31°
2026-04-20 21:00 51.69473 16.47138 3009 ft 152 kts 31°
2026-04-20 21:01 51.70368 16.48052 3009 ft 152 kts 31°
2026-04-20 21:01 51.71265 16.48968 3009 ft 152 kts 31°
2026-04-20 21:01 51.72160 16.49881 3008 ft 152 kts 31°
2026-04-20 21:01 51.73055 16.50796 3009 ft 152 kts 31°
2026-04-20 21:02 51.73949 16.51711 3009 ft 152 kts 31°
2026-04-20 21:02 51.74896 16.52394 3005 ft 151 kts
2026-04-20 21:02 51.75941 16.52401 3007 ft 150 kts 357°
2026-04-20 21:02 51.76988 16.52377 3009 ft 150 kts 358°
2026-04-20 21:03 51.78035 16.52347 3009 ft 151 kts 358°
2026-04-20 21:03 51.79087 16.52284 2822 ft 150 kts 356°
2026-04-20 21:03 51.80112 16.52255 1981 ft 148 kts 359°
2026-04-20 21:03 51.81116 16.52214 1246 ft 141 kts
2026-04-20 21:04 51.81872 16.52956 889 ft 119 kts 56°
2026-04-20 21:04 51.82251 16.54050 806 ft 107 kts 62°
2026-04-20 21:04 51.82642 16.55047 751 ft 101 kts 46°
2026-04-20 21:04 51.83264 16.55314 768 ft 95 kts 347°
2026-04-20 21:05 51.83853 16.54882 792 ft 93 kts 325°
2026-04-20 21:05 51.84166 16.54103 738 ft 88 kts 245°
2026-04-20 21:05 51.83763 16.53293 420 ft 97 kts 235°
2026-04-20 21:05 51.83455 16.52546 302 ft 65 kts 233°
2026-04-20 21:06 51.83131 16.51814 384 ft 101 kts 235°
2026-04-20 21:06 51.82736 16.50820 830 ft 109 kts 238°
2026-04-20 21:06 51.82416 16.49733 1084 ft 112 kts 265°
2026-04-20 21:06 51.82807 16.48729 1115 ft 119 kts 333°
2026-04-20 21:07 51.83607 16.48294 1104 ft 124 kts
2026-04-20 21:07 51.84243 16.49195 1069 ft 132 kts 60°
2026-04-20 21:07 51.84342 16.49479 1066 ft 132 kts 59°
2026-04-20 21:07 51.84359 16.49525 1067 ft 132 kts 59°
2026-04-20 21:08 51.84832 16.50823 1034 ft 134 kts 59°
2026-04-20 21:08 51.85316 16.52107 1054 ft 133 kts 59°
2026-04-20 21:08 51.85716 16.53404 1047 ft 118 kts 83°
2026-04-20 21:08 51.85381 16.54429 934 ft 105 kts 153°
2026-04-20 21:09 51.84689 16.54694 795 ft 99 kts 172°
2026-04-20 21:09 51.84133 16.54361 689 ft 88 kts 240°
2026-04-20 21:09 51.83838 16.53436 422 ft 95 kts 236°
2026-04-20 21:09 51.83493 16.52642 303 ft 69 kts 235°
2026-04-20 21:10 51.83357 16.52314 301 ft 25 kts 237°
2026-04-20 21:10 51.83242 16.52084 300 ft 24 kts 235°
2026-04-20 21:10 51.83188 16.52031 297 ft 13 kts 181°
2026-04-20 21:10 51.83103 16.52031 299 ft 12 kts 156°
2026-04-20 21:11 51.83109 16.52146 298 ft 16 kts 77°
2026-04-20 21:11 51.83147 16.52382 308 ft 26 kts 71°
2026-04-20 21:11 51.83221 16.52665 313 ft 29 kts 75°
2026-04-20 21:11 51.83270 16.52967 312 ft 22 kts 75°
2026-04-20 21:12 51.83235 16.53094 311 ft 13 kts 180°
2026-04-20 21:12 51.83200 16.53050 310 ft 0 kts 259°